Камышное

Казахстан     51˚58′01″N   61˚46′58″E
темп.,
°C
ветер,
м/с
пор.,
м/с
влажн.,
%
обл.,
%
осадки,
мм/ч
давл.,
гПа
погр.,
м
6 декабря, вс
вс623:00−19˚св349514 0.0 104558
02:00−18˚ссв23940 0.0 104526
05:00−19˚ссв23940 0.0 104525
08:00−18˚ссв12920 0.0 104520
11:00−16˚ссз11900 0.0 104520
14:00−14˚зсз12870 0.0 104435
17:00−16˚з23840 0.0 104320
20:00−15˚зюз33830 0.0 104224
7 декабря, пн
пн723:00−15˚зюз34830 0.0 104132
02:00−14˚з348774 0.0 103967
05:00−14˚з338874 0.0 103836
08:00−14˚з238622 0.0 103720
11:00−12˚зюз228415 0.0 103723
14:00−10˚юз33839 0.0 103763
17:00−11˚юз33815 0.0 103626
20:00−12˚зюз337917 0.0 103627
8 декабря, вт
вт823:00−12˚зюз337849 0.0 103732
02:00−12˚юз34795 0.0 103634
05:00−12˚зюз34802 0.0 103645
08:00−13˚з33800 0.0 103626
11:00−11˚з23820 0.0 103658
14:00−10˚зюз23830 0.0 103680
17:00−11˚з23820 0.0 103621
20:00−11˚з238618 0.0 103626
9 декабря, ср
ср923:00−11˚з239031 0.0 103624
02:00−10˚зюз34920 0.0 103541
05:00−10˚з34910 0.0 103548
08:00−10˚з34910 0.0 103551
11:00−9˚з34900 0.0 103568
14:00−7˚зсз34890 0.0 103589
17:00−9˚зсз33870 0.0 103521
20:00−10˚зсз23850 0.0 103521
10 декабря, чт
чт1023:00−10˚сз23810 0.0 103621
02:00−11˚с23760 0.0 103621
05:00−12˚с22770 0.0 103721
08:00−13˚с33840 0.0 103821
11:00−12˚с34930 0.0 103998
14:00−11˚с229511 0.0 104089
17:00−12˚с129526 0.0 104021
20:00−13˚с229541 0.0 104121